SCP
1 1 1 1 1 1 1 1 1 1 1 1 0 0 0 0 0 0 0 0 1 1 1 1 1 1 1 1 1 1 1 1 1 1 1 1 1 0 0 0 0 1 1
1 1 1 1 1 1 1 1 1 1 1 0 0 0 0 0 0 0 0 0 1 1 1 1 1 1 1 1 1 1 1 1 1 1 1 1 0 0 0 0 0 1 1
1 1 1 1 1 1 1 1 1 1 1 0 0 0 0 0 0 0 0 1 1 1 1 1 1 1 1 1 1 1 1 1 1 1 1 1 1 0 0 0 0 0 1
2 2 2 1 1 1 1 1 1 1 1 1 0 0 0 0 0 0 0 1 1 1 1 1 1 1 1 1 1 1 1 1 1 1 1 1 1 1 0 0 0 0 1
2 2 2 1 1 1 1 1 1 1 1 1 0 0 0 0 0 0 0 0 0 0 0 1 1 1 1 1 1 1 1 1 1 1 1 1 1 1 1 1 0 1 1
3 3 2 1 1 1 1 1 1 1 1 1 1 0 0 0 0 0 0 0 0 0 0 0 0 0 1 1 1 1 1 1 1 1 1 1 1 1 1 1 1 1 1
3 3 2 1 1 1 1 1 1 1 1 0 0 0 0 0 0 0 0 1 0 0 0 0 0 0 0 1 1 1 1 1 1 1 1 1 1 1 1 1 1 1 1
3 2 2 1 1 1 1 1 1 1 1 0 0 0 0 0 0 0 1 1 0 0 0 0 0 0 0 0 1 1 1 1 1 1 1 1 1 1 1 1 1 1 1
3 2 2 2 1 1 1 1 1 1 1 1 1 0 0 0 0 0 0 0 0 0 0 1 1 1 1 1 1 1 1 1 1 2 2 2 2 1 1 1 1 1 1
3 3 2 2 2 2 2 2 2 2 2 2 1 1 1 0 0 0 0 0 0 0 0 1 1 1 1 1 1 1 1 1 1 2 2 2 2 2 2 1 1 1 1
4 4 3 2 2 2 2 2 3 3 3 3 2 2 1 1 1 1 1 1 1 1 1 1 1 1 1 1 1 1 1 1 1 1 2 2 2 3 3 2 2 2 1
6 5 4 3 3 3 3 3 3 3 4 4 4 3 2 2 2 1 1 1 1 1 1 1 1 1 1 1 1 1 1 1 1 1 1 2 2 2 3 3 3 2 2
7 6 5 4 3 3 3 3 3 3 3 4 4 3 3 3 3 2 2 1 1 1 1 1 1 1 1 1 1 1 1 1 1 1 1 1 1 2 2 2 3 3 3
7 6 5 3 2 2 2 2 2 2 3 3 3 3 3 3 3 3 2 2 1 1 1 1 1 1 1 1 1 1 0 0 0 0 0 0 1 1 1 2 2 2 2
7 6 5 3 1 1 1 2 2 2 2 2 2 2 2 2 2 2 2 2 2 1 1 1 1 1 1 1 1 0 0 0 0 0 0 0 0 0 1 1 1 1 1
7 6 4 2 1 1 1 1 1 1 1 1 1 1 2 2 2 2 2 2 1 1 1 1 1 1 1 1 1 1 1 0 0 0 0 0 0 0 0 0 0 0 0
7 6 4 2 1 1 1 1 1 1 1 1 1 1 1 1 1 1 2 2 1 1 1 1 1 1 1 1 1 1 1 1 0 0 0 0 0 0 0 0 0 0 0
6 5 3 1 1 1 1 1 1 1 1 1 1 1 1 1 1 1 1 1 1 1 0 0 0 0 1 1 1 0 0 0 0 0 0 0 0 0 0 0 0 0 0
5 4 3 1 1 1 1 1 1 1 1 1 1 1 1 1 1 1 1 1 1 1 0 0 0 0 0 0 0 0 0 0 0 0 0 0 0 0 0 0 0 0 0
4 4 2 1 1 1 0 0 0 0 1 1 1 1 1 1 1 1 1 1 1 1 0 0 0 0 0 0 0 0 0 0 0 0 0 0 0 0 0 0 0 0 0
3 3 2 1 1 1 1 0 0 0 0 0 1 1 1 1 1 1 1 1 1 1 1 1 1 0 0 0 0 0 0 0 0 0 0 0 0 0 0 0 0 0 0
3 3 2 1 1 1 1 1 0 0 0 0 0 0 1 1 1 1 1 1 1 1 1 1 1 1 1 1 0 0 0 0 0 0 0 0 0 0 0 0 0 0 0
3 3 2 1 1 1 1 0 0 0 0 0 0 0 0 0 0 1 1 0 0 0 1 1 1 1 1 1 1 0 0 0 0 0 0 0 0 0 0 0 0 0 0
4 3 2 2 2 1 1 0 0 0 0 0 0 0 0 0 0 0 0 0 0 0 0 0 0 1 1 1 1 1 1 0 0 0 0 0 0 0 0 0 0 0 0
4 4 2 2 2 1 1 0 0 0 1 1 0 0 0 0 0 0 0 0 0 0 0 0 0 0 0 0 1 1 1 1 0 0 0 0 0 0 0 0 0 0 0
4 4 3 2 2 2 1 0 0 0 1 1 0 0 0 0 0 0 0 0 0 0 0 0 0 0 0 0 0 1 1 1 1 1 1 1 0 0 0 0 0 0 0
Wind_Speed
1 1 1 1 1 1 1 1 1 1 1 1 1 2 2 2 3 3 3 7 8 8 8 8 9 9 9 9 8 8 8 8 7 7 7 6 6 5 5 6 7 7 8
2 1 1 1 1 1 1 2 2 1 0 0 1 2 3 3 3 3 2 4 6 7 7 8 8 8 8 8 8 8 8 8 7 7 6 6 6 6 6 5 6 7 8
3 2 1 1 0 1 2 1 1 1 1 1 1 2 2 3 3 3 3 2 3 5 7 7 7 7 8 8 8 8 7 7 7 7 7 6 6 6 6 6 6 7 8
4 3 2 1 0 1 1 2 1 1 1 1 0 1 2 2 3 3 2 2 2 2 4 6 6 6 7 7 7 7 7 6 6 6 6 7 6 6 6 6 6 6 7
4 3 2 1 1 1 1 1 1 2 1 1 1 1 1 1 2 2 3 3 2 2 2 4 5 6 6 6 7 7 7 6 6 6 6 7 6 6 6 6 6 6 6
4 3 2 1 2 1 1 1 1 1 1 1 1 1 0 0 1 2 3 2 3 3 3 3 2 3 5 6 6 6 7 7 6 6 7 7 6 5 5 5 5 6 6
3 3 2 2 1 1 1 1 1 1 1 1 2 2 2 1 0 1 2 2 2 3 3 3 2 2 2 5 6 6 6 6 6 6 6 6 6 6 5 5 5 5 6
3 3 3 2 2 1 1 1 1 1 1 1 2 2 2 3 2 1 1 2 2 2 3 4 3 3 2 1 2 5 5 5 6 6 6 6 6 6 6 5 5 5 5
2 2 3 2 2 2 1 1 2 2 1 0 1 3 2 1 1 2 1 1 1 1 1 1 3 3 3 2 2 4 5 5 6 6 6 6 6 6 6 6 6 5 5
2 2 2 2 2 2 2 2 2 2 2 1 0 1 2 3 2 1 2 1 1 2 2 2 3 3 3 2 3 4 5 4 5 6 6 6 6 6 6 6 6 6 6
1 1 2 2 2 1 1 1 1 1 2 2 1 1 1 1 2 2 1 1 1 1 2 2 2 2 3 3 3 4 5 5 5 5 5 5 5 5 5 6 7 7 7
0 1 2 1 2 1 2 1 1 2 1 1 1 1 1 2 2 2 2 1 1 2 1 1 2 2 3 3 5 6 6 5 5 4 4 5 5 5 5 5 6 6 6
1 2 2 2 1 1 1 1 1 1 1 1 1 1 1 1 1 2 3 1 1 1 1 1 2 2 2 2 3 5 5 5 5 5 5 4 5 5 5 5 6 6 6
2 2 2 2 2 1 1 1 1 1 1 1 1 1 1 1 1 2 3 3 1 1 1 2 1 1 1 2 3 4 3 5 5 5 5 5 4 4 3 4 5 4 5
2 2 2 2 1 1 1 1 1 1 1 1 1 1 1 0 0 1 1 2 3 2 2 2 1 1 1 1 2 3 3 4 5 5 5 5 4 4 3 3 3 4 4
2 2 2 1 1 1 1 1 1 1 1 1 1 1 0 0 0 0 1 1 2 3 2 2 2 2 1 1 2 2 3 4 5 6 6 5 4 4 4 3 3 3 4
3 3 3 2 1 1 1 1 1 1 1 1 1 1 1 0 1 0 1 1 1 2 2 2 1 1 1 1 0 1 2 2 3 5 6 5 5 5 4 4 4 4 4
3 3 3 2 2 1 1 2 2 1 1 2 1 1 1 0 0 0 1 1 1 1 2 2 1 1 1 1 1 1 1 1 2 3 5 5 5 5 5 4 4 4 4
3 2 3 3 2 2 1 2 2 2 2 2 2 2 1 1 0 0 0 0 0 1 1 2 1 1 1 0 1 1 1 1 2 2 3 4 5 5 4 4 4 4 4
3 3 3 3 3 2 2 2 2 1 1 1 2 2 2 2 2 1 1 1 1 1 1 1 0 1 1 0 1 0 1 1 2 2 1 2 3 4 4 4 4 4 3
3 3 3 2 2 2 2 2 2 2 2 1 1 1 2 2 3 2 1 1 2 1 1 1 1 0 1 0 1 1 2 1 2 1 1 1 1 1 2 3 4 4 4
2 2 3 2 2 1 2 3 3 2 2 2 2 1 1 1 2 1 1 2 3 3 3 2 2 2 2 2 2 2 1 1 2 2 1 2 1 2 2 2 4 5 5
3 3 3 3 2 2 3 4 4 3 3 3 3 2 1 1 1 0 1 1 1 3 5 4 3 4 4 3 3 2 2 2 3 3 2 2 1 2 3 3 4 5 5
3 3 3 3 2 2 3 4 4 3 3 3 3 3 3 2 1 1 1 0 1 2 2 3 4 4 4 4 4 4 3 2 2 2 2 2 2 2 2 2 4 5 5
3 3 3 3 3 2 3 3 3 2 2 2 2 3 3 2 3 3 2 1 2 3 3 3 4 5 6 6 4 2 1 1 2 3 1 2 2 1 1 2 2 4 5
4 3 3 3 3 2 2 3 3 2 2 2 1 2 3 3 4 3 2 2 2 4 3 3 3 4 3 4 5 5 4 3 2 2 2 2 1 1 1 1 1 2 2
Wind_Direction
151 160 166 149 171 177 170 172 179 184 199 207 178 175 163 157 161 159 169 176 175 174 175 177 177 178 181 182 178 178 178 178 179 180 181 182 183 180 178 184 186 185 186
122 129 131 126 154 163 166 165 161 154 170 165 171 151 140 146 147 152 160 174 176 171 173 178 179 180 180 183 183 183 183 184 185 186 189 190 186 181 178 181 189 191 189
139 130 128 119 168 160 149 134 125 122 142 151 146 145 139 142 141 148 156 164 177 176 176 179 181 180 182 184 183 184 186 189 190 191 194 196 192 189 190 189 190 195 193
132 125 124 125 166 131 130 130 126 111 104 102 120 142 138 144 152 160 158 162 166 177 182 181 181 186 188 189 187 187 189 190 192 194 198 199 195 193 196 198 198 193 195
129 124 120 119 96 91 106 136 110 125 123 113 131 109 119 152 168 167 166 171 171 170 169 180 189 192 196 196 198 198 197 198 200 203 203 201 198 196 195 201 206 204 201
125 120 118 92 88 93 77 86 111 107 139 151 103 53 35 183 159 168 179 177 178 180 173 175 181 194 201 199 205 206 205 205 206 207 207 204 199 194 199 204 210 210 209
120 117 109 98 102 115 132 120 121 101 84 104 81 35 10 13 117 183 183 176 182 188 175 175 176 185 199 209 213 211 211 212 209 205 204 202 200 199 202 207 215 216 215
137 134 127 129 139 127 105 103 121 119 115 116 120 97 20 357 349 285 189 183 191 187 181 184 186 191 197 196 192 202 206 208 209 209 208 203 200 203 206 210 216 217 218
140 134 141 139 142 138 148 163 152 140 150 188 151 145 146 206 308 334 288 204 179 173 187 185 190 195 191 189 194 206 204 205 208 211 211 207 206 209 212 214 221 221 224
137 140 139 143 146 153 171 183 164 154 149 169 258 163 165 162 156 308 338 329 223 198 203 210 205 198 191 188 196 195 200 205 208 210 211 209 210 213 216 218 224 222 227
152 157 158 153 159 167 181 177 155 149 155 165 169 154 115 118 137 149 207 309 332 266 221 214 198 197 198 195 200 198 196 200 204 207 211 212 212 212 219 224 230 227 231
231 192 169 174 181 177 188 187 177 167 169 163 159 157 155 155 172 156 171 210 260 282 263 219 208 205 204 196 202 196 194 196 199 207 213 220 222 218 224 230 229 228 232
212 217 187 184 191 197 190 176 165 181 179 168 170 181 174 188 176 158 149 167 218 285 318 272 230 213 204 187 198 195 196 193 201 210 219 226 228 226 228 232 231 230 233
207 198 180 178 193 192 180 165 163 193 170 177 177 172 163 210 169 163 159 148 142 321 323 280 293 221 200 182 196 190 195 197 204 212 221 228 227 224 231 242 239 233 231
196 178 168 167 175 172 153 138 138 170 125 146 170 159 148 176 121 153 145 150 152 167 256 266 280 267 221 197 205 188 194 200 201 210 217 222 222 218 222 235 232 227 223
181 168 166 165 161 149 139 125 138 161 127 132 152 125 126 164 113 114 124 130 148 160 210 249 241 251 236 217 192 188 202 209 214 216 220 220 215 216 225 223 221 221 213
169 172 177 167 177 186 168 150 185 161 143 151 146 138 170 158 121 90 112 129 150 150 185 260 250 265 210 203 238 220 206 207 221 223 221 221 222 223 226 222 215 213 205
174 174 170 166 179 187 183 168 190 173 158 166 177 150 176 125 101 192 133 140 167 169 169 216 270 268 238 225 221 248 230 215 226 224 218 221 224 230 232 225 217 214 206
167 166 161 171 178 177 183 189 177 177 181 184 182 172 184 130 139 252 173 181 191 160 152 161 228 281 277 167 57 301 293 298 253 229 219 224 224 226 229 223 217 214 210
172 175 180 183 182 181 181 174 161 155 168 191 191 185 182 168 183 193 191 197 171 129 127 149 188 266 270 343 101 163 292 289 270 257 239 228 229 225 229 226 219 215 213
186 182 179 188 191 189 194 175 179 175 171 188 196 174 186 180 180 185 186 185 159 157 164 171 212 251 255 167 215 225 236 266 276 255 253 268 247 240 238 235 226 226 222
189 177 176 179 186 221 197 185 176 176 179 179 187 194 219 175 176 172 167 181 175 174 185 189 209 218 240 221 209 215 216 245 282 261 200 261 225 244 245 228 237 228 221
195 190 190 177 187 220 195 190 192 183 184 186 183 185 211 224 188 183 239 241 225 213 196 187 204 225 226 221 201 225 226 226 240 234 176 256 242 246 252 243 230 225 221
198 201 195 191 192 215 191 190 190 185 187 189 191 188 186 210 220 171 169 279 284 269 233 208 212 232 232 223 207 211 214 234 272 263 178 222 242 238 255 255 232 222 222
196 196 190 188 191 213 192 186 172 165 179 199 209 198 186 194 209 180 143 182 302 299 284 257 244 252 252 243 214 170 183 175 270 276 214 191 231 233 251 263 247 223 221
195 193 189 191 185 196 190 176 160 167 179 199 221 217 203 203 203 184 167 186 249 272 290 310 305 296 273 252 223 197 195 197 216 254 233 176 213 185 269 273 245 230 225